FENGYUN 1C DEB *, 46993

Orbit data source: Space-Track

FENGYUN 1C DEB *, 46993 is space debris in SSO originally from a launch on Mon, 10 May 1999 UTC launched from the Taiyaun Space Center, China (TSC). Fengyun 1C debris stems from the Chinese weather satellite Fengyun-1C, which was intentionally destroyed by a Chinese anti-satellite missile in 2007. This event dramatically increased the amount of space debris, with thousands of trackable fragments posing hazards to satellites and human spaceflight. The Fengyun 1C debris cloud has become a focal point in discussions about space sustainability and the need for international regulations to prevent the creation of new debris.

Loading next visibility...
Identifier
46993, 1999-025EZT
Orbit
SSO
Last TLE update
5 days ago
Origin
Manufacturer
Unknown
Mission
Spacecraft
Bus & Motor
Unknown
Mass
Unknown
Launch date (UTC)
1999-05-10 (26 years ago)
Launch vehicle
Unknown
Launch site
Taiyaun Space Center, China (TSC)
Object type
Payload
Rocket body
Debris
Shape & HBR
Unknown
Radar Cross Section
Small (<0.1 m²)

Expand to show TLE details & history

TLE from 5 days ago
0 FENGYUN 1C DEB *
1 46993U 99025EZT 25184.14719236  .00000066  00000-0  94531-4 0  9997
2 46993  98.7069 317.9186 0263554  10.3602 170.0973 13.68996028580321
Epoch: 2025-07-03T03:31Z
TLE epoch observation values (Epoch: 2025-07-03T03:31:57.419Z)
Latitude
-1.06745°
Longitude
163.34857°
Altitude
1,197.992 km
Speed
7.16 km/s
True Right ascension
09h 11m 01s
True Declination
-1° 03' 41"
Sunlit
Object was in daylight at epoch
Visualization orbit readout
Latitude
-13.79641°
Longitude
166.06337°
Altitude
1,194.292 km
Speed
7.164 km/s
Apparent Right ascension
08h 54m 48s
Apparent Declination
-25° 49' 11"
Sunlit
Object is in daylight
Visualization observer readout
Local Sidereal Time
20:14:02
Azimuth
325.808° NNW
Elevation
-73.535°
Doppler factor
1
Orbital elements
Apogee altitude
1,194.866 km
Perigee altitude
805.937 km
Semi-major axis
7,378.539 km
Eccentricity
0.02636
Inclination
98.7069°
RAAN
317.9186°
Arg. of periapsis
10.3602°
True anomaly
Unknown
Mean anomaly
170.0973°
Eccentric anomaly
Unknown
Mean motion
3.42442 °/min
Orbital period
105.13 mins
BSTAR
0.000094531
Loading maneuver chart data...
Loading SW <> Apogee altitude chart data...
Loading historical data...
Loading historical data...
Loading historical data...
Loading historical data...
Loading historical data...
Loading historical data...
Loading historical data...

FENGYUN 1C DEB * Visibility forecast

Observer location: undefined°, undefined°

Span
Click to sort rows by Start time (UTC) header in descending order
Start Az.
Max El. time (UTC)
Max El. Az.
Max El.
End time (UTC)
End Az.
10 mins2025-07-08 09:03:22.472Z175.119° S2025-07-08 09:07:22.472Z225.687° WSW42.785°2025-07-08 09:13:22.472Z342.162° N
5 mins2025-07-08 20:07:22.472Z71.603° E2025-07-08 20:09:22.472Z90.597° ESE14.779°2025-07-08 20:12:22.472Z117.283° SE
12 mins2025-07-08 21:48:22.472Z13.787° NNE2025-07-08 21:53:22.472Z17.81° NNE44.814°2025-07-08 22:00:22.472Z195.355° SSW
6 mins2025-07-08 23:34:22.472Z323.999° NNW2025-07-08 23:36:22.472Z303.929° NW16.836°2025-07-08 23:40:22.472Z266.787° W
7 mins2025-07-09 07:54:22.472Z108.804° ESE2025-07-09 07:57:22.472Z60.671° ENE25.926°2025-07-09 08:01:22.472Z10.847° NNE
|